DW9771 Weather Reports


time (UTC)temp
C
wind
direction
speed
KPH
gust
KPH
rain 1hr
cm
rain 24hr
cm
rain mn
cm
humidity
%
barometer
mb
20260503230042 20 345 12.9 24.1 0.00 0.03 0.03 55 1009.9
20260503224540 20 293 16.1 27.4 0.00 0.03 0.03 54 1010.1
20260503223038 21 323 17.7 25.7 0.00 0.03 0.03 53 1010.4
20260503221539 21 314 11.3 20.9 0.00 0.03 0.03 51 1010.5
20260503220035 21 330 11.3 24.1 0.00 0.03 0.03 51 1010.7
20260503214533 22 349 9.7 22.5 0.00 0.03 0.03 50 1010.7
20260503213033 23 338 9.7 19.3 0.00 0.03 0.03 47 1010.7
20260503211530 24 10 9.7 16.1 0.00 0.03 0.03 46 1010.7
20260503210027 23 338 6.4 14.5 0.00 0.03 0.03 47 1010.9
20260503204526 23 355 8.0 16.1 0.00 0.03 0.03 47 1011.1
20260503203031 23 354 6.4 16.1 0.00 0.03 0.03 47 1011.2
20260503201522 25 346 6.4 11.3 0.00 0.03 0.03 47 1011.3
20260503200021 25 336 3.2 8.0 0.00 0.03 0.03 48 1011.5
20260503194516 25 97 1.6 6.4 0.00 0.03 0.03 45 1011.7
20260503193012 23 83 3.2 8.0 0.00 0.03 0.03 49 1011.8
20260503191508 23 26 3.2 8.0 0.00 0.03 0.03 54 1012.0
20260503190007 22 120 4.8 11.3 0.00 0.03 0.03 57 1012.0
20260503184510 22 91 3.2 9.7 0.00 0.03 0.03 58 1012.0
20260503183104 21 87 6.4 12.9 0.00 0.03 0.03 61 1012.2
20260503181558 21 39 4.8 11.3 0.00 0.03 0.03 62 1012.3
20260503180058 21 75 4.8 11.3 0.00 0.03 0.03 65 1012.4
20260503174552 20 30 6.4 14.5 0.00 0.03 0.03 66 1012.5
20260503173050 20 51 8.0 17.7 0.00 0.03 0.03 66 1012.5
20260503171608 19 79 6.4 16.1 0.00 0.03 0.03 69 1012.6
20260503081540 10 76 1.6 3.2 0.00 0.00 0.00 97 1013.7
20260503071552 9 127 0.0 3.2 0.00 0.00 0.00 97 1013.7
20260503054529 10 80 0.0 3.2 0.00 0.00 0.00 97 1013.9
20260503053035 10 339 0.0 1.6 0.00 0.00 0.00 97 1013.8
20260503051529 10 338 0.0 0.0 0.00 0.00 0.00 97 1013.9
20260503050026 10 338 0.0 3.2 0.00 0.00 0.00 97 1013.7
20260503044542 10 341 1.6 4.8 0.00 0.00 0.00 97 1013.6
20260503043039 10 18 1.6 4.8 0.00 0.00 0.00 97 1013.4
20260503041524 10 345 3.2 11.3 0.00 0.00 0.00 97 1013.3
20260503040026 10 316 4.8 11.3 0.00 0.00 0.00 96 1013.1
20260503034522 10 305 8.0 14.5 0.00 0.00 0.00 96 1013.1
20260503033021 10 333 4.8 12.9 0.00 0.00 0.00 96 1012.9
20260503031526 10 13 4.8 12.9 0.00 0.00 0.00 95 1012.9
20260503030019 10 344 8.0 17.7 0.00 0.00 0.00 95 1012.9
20260503024520 10 30 6.4 14.5 0.00 0.00 0.00 95 1012.9
20260503023017 10 356 4.8 12.9 0.00 0.00 0.00 95 1012.8
20260503021517 10 344 8.0 16.1 0.00 0.00 0.00 94 1012.8
20260503020016 10 332 8.0 16.1 0.00 0.00 0.00 93 1012.9
20260503014514 10 339 9.7 17.7 0.00 0.00 0.00 93 1012.9
20260503013014 11 334 3.2 17.7 0.00 0.00 0.00 93 1013.1
20260503011513 11 304 12.9 24.1 0.00 0.00 0.00 91 1013.0
20260503010012 11 337 12.9 25.7 0.00 0.00 0.00 91 1012.9
20260503004509 11 324 12.9 22.5 0.00 0.00 0.00 89 1013.0
20260503003008 12 342 12.9 24.1 0.00 0.00 0.00 87 1013.1
20260503001507 12 23 14.5 24.1 0.00 0.00 0.00 86 1013.1
20260503000005 12 348 9.7 22.5 0.00 0.00 0.00 86 1013.1
20260502234502 13 341 12.9 20.9 0.00 0.00 0.00 84 1013.4
20260502233100 13 326 11.3 20.9 0.00 0.00 0.00 85 1013.5
20260502231600 13 1 12.9 24.1 0.00 0.00 0.00 84 1013.9